sat.trackr.live / text

‹ back to catalog

STARLINK-35999

NORAD 66951 · 2025-286AC

PAYLOAD ACTIVE UNKNOWN

§ Identity

Operator
Country
US
Launch date
2025-12-07
Launch site
AFWTR
Launch vehicle
Mass (kg)
RCS (m²)

Purposes: comms

External: N2YO · Heavens-Above · Gunter

§ Orbital elements

Epoch: 2026-09-19T05:51:26.000352Z

Period
93.85 min
Inclination
53.1589°
Eccentricity
0.0001502
Mean motion
15.34427140 rev/d
Perigee alt
461.6 km
Apogee alt
463.7 km
Semi-major
6,840.8 km
B*
5.7652e-4
RAAN
175.6573°
Arg perigee
109.2744°
Mean anomaly
250.8422°
Rev number
4,510

§ Raw data

STARLINK-359991 66951U 25286AC  26262.24405093  .00019169  00000+0  57652-3 0  99982 66951  53.1589 175.6573 0001502 109.2744 250.8422 15.34427140 45103

JSON: /api/v1/satellites/66951 · /tle

For live sub-satellite position, see the globe view (requires WebGL).

§ Visibility from observer

Set your observer location to see the next 7 days of passes ≥ 10°. The values pass through the URL so the page stays shareable.

No JS? Fill the form by hand. The geolocation button needs JavaScript.